Dimas Wibowo

Recruteur en chef - Dewa United
13 Janv 2028
Jeudi
Processus

Personnalité

Adaptabilité (10) Ambition (14) Controverse (17) Loyauté (3) Pression (11) Professionnalisme (1) Sportivité (19) Tempérament (15)

Profil

Style d'entraînement Démocratique
Diplôme National B
Détermination 3
Gestion des joueurs 2
Motivation 7
Discipline 6
Satisfaction professionnelle
100%
Fatigue
0%
Rôle Recruteur en chef
Salaire 44.9K p/s
Contrat 14.03.2030

Performance

Comportement Bon
Efficacité de l'entraînement
31%
Développement des joueurs
35%
Prévention des blessures
15%
Mise en place tactique
25%

Événements récents

A participé à une réunion de recrutement 7j
A participé à une réunion de recrutement 7j
A voté contre une cible de transfert 7j
A voté contre une cible de transfert 7j
A évalué un joueur 7j
A évalué un joueur 7j
A participé à une réunion de recrutement 14j
A participé à une réunion de recrutement 21j

Suivi en cours

140
Joueur Club Statut Capacité Confiance Observé Dernière observation Dernier vote
Cristhian Medina Dinamo Brest Actif 110 / 91 40% 1 09.01.2028 -
Valdeci Arema Actif 93 / 94 40% 1 09.01.2028 -
Kianz Froese Semen Padang Actif 115 / 92 40% 3 08.01.2028 -
Uilliam Barros Persib Actif 114 / 94 40% 3 08.01.2028 -
Enzo Avaro Odd Actif 128 / 106 40% 1 08.01.2028 -
Elías Ayala Madryn Actif 84 / 118 40% 1 08.01.2028 -
Gledson PSM Actif 104 / 99 40% 1 12.08.2027 -
Muhammed Kabiru PSIM Actif 112 / 98 40% 1 05.08.2027 -
Louis Thompson Stevenage Actif 92 / 105 40% 1 03.08.2027 -
Radovan Pankov Persija Actif 127 / 104 40% 4 01.08.2027 -
Kerim Palić Madura United Actif 94 / 109 40% 1 31.07.2027 -
Erik de los Santos Racing Actif 102 / 126 40% 4 30.07.2027 -
Zane Albarus Cambridge United Actif 83 / 106 40% 3 30.07.2027 -
José Castellano Mineros de Guayana Actif 91 / 95 40% 1 29.07.2027 -
Imanol García Persik Actif 114 / 88 40% 1 29.07.2027 -
Andrés Álvarez Aguilas Doradas Actif 105 / 110 40% 2 27.07.2027 -
Gonzalo Asis Almagro Actif 122 / 128 40% 1 27.07.2027 -
Yeferson Rodallega Envigado Actif 129 / 108 40% 3 26.07.2027 -
Finley Potter Fleetwood Town Actif 86 / 98 40% 1 26.07.2027 -
Danylo Sydorenko Ahrobiznes Actif 109 / 107 40% 2 24.07.2027 -
Bruno Tubarão Persija Actif 131 / 117 40% 1 23.07.2027 -
Juan José Tello Deportivo Cali Actif 123 / 102 40% 1 22.07.2027 -
Mykola Buzhyn Poltava Actif 109 / 94 40% 1 20.07.2027 -
Sávio PSM Actif 107 / 88 40% 3 19.07.2027 -
Mohamad Anez Borneo Actif 95 / 84 40% 1 17.07.2027 -
Islamzhan Nasyrov Ryazan Actif 109 / 83 40% 2 15.07.2027 -
Agustín Chopitea Colon Actif 90 / 90 40% 2 14.07.2027 -
Milorad Stajić Brisbane Roar Actif 109 / 86 40% 1 14.07.2027 -
Kirill Malyarov Shinnik Actif 84 / 91 40% 2 12.07.2027 -
Maximiliano Ribero Central Norte Actif 109 / 102 40% 1 10.07.2027 -
Ousmane Ndong Akhmat Grozny Actif 109 / 99 40% 1 06.07.2027 -
Jaime Giraldo Semen Padang Actif 94 / 100 40% 2 01.07.2027 -
Simone Iob Siracusa Actif 121 / 95 40% 1 30.06.2027 -
Nazariy Muravskyy LNZ Actif 106 / 113 40% 1 30.06.2027 -
Pablo Oliveira Arema Actif 88 / 101 40% 1 23.06.2027 -
Daniil Kornyushin Shinnik Actif 89 / 105 40% 1 21.06.2027 -
Daniil Penchikov Arsenal Tula Actif 85 / 111 40% 1 15.06.2027 -
Konstantin Kertanov Chelyabinsk Actif 94 / 110 40% 2 14.06.2027 -
Donald Love Accrington Stanley Actif 67 / 91 40% 1 10.06.2027 -
Francesco Rillo Picerno Actif 92 / 92 40% 1 09.06.2027 -
Tim Receveur Actif 84 / 107 37% 1 04.06.2027 -
David Kokoev Yenisey Actif 121 / 99 40% 2 28.05.2027 -
Harrison Neal Fleetwood Town Actif 113 / 107 40% 1 28.05.2027 -
Kamil Ibragimov Volga Actif 100 / 99 40% 1 26.05.2027 -
Ruslan Chobanov Chaika Actif 88 / 110 40% 1 24.05.2027 -
Vasily Cherov Ufa Actif 99 / 115 40% 2 23.05.2027 -
Josh Dacres-Cogley Stockport County Actif 99 / 102 40% 2 20.05.2027 -
Mattia Capoferri Pergolettese Actif 89 / 105 40% 1 17.05.2027 -
Aidan Simmons Western Sydney Wanderers Actif 80 / 100 40% 1 16.05.2027 -
Pavel Maslov Chaika Actif 115 / 113 40% 4 15.05.2027 -
Timofey Kalistratov KAMAZ Actif 102 / 87 40% 1 15.05.2027 -
Finley McAllister Grimsby Town Actif 67 / 90 40% 1 10.05.2027 -
Vladis Emmersón Yenisey Actif 85 / 91 40% 1 06.05.2027 -
Oleg Lanin Shinnik Actif 110 / 101 40% 1 27.04.2027 -
Nikita Pechenkin Sokol Actif 78 / 116 40% 2 22.04.2027 -
Nikolay Tarasov Spartak Kostroma Actif 111 / 107 40% 1 21.04.2027 -
Nicholas Osei-Bonsu Livyi Bereh Actif 76 / 70 40% 1 19.04.2027 -
Artur Remeniak Feniks Actif 110 / 92 40% 1 19.04.2027 -
Dmitry Ivannikov Chaika Actif 102 / 109 40% 1 17.04.2027 -
Tigran Avanesyan Arsenal Tula Actif 85 / 93 40% 1 17.04.2027 -
Léo Cordeiro Ural Actif 117 / 103 40% 2 14.04.2027 -
Petro Lutsiv Metalist Actif 84 / 108 40% 1 10.04.2027 -
Mykyta Kononov Poltava Actif 101 / 99 40% 1 09.04.2027 -
Ivan Havrushko Ahrobiznes Actif 73 / 75 40% 1 04.03.2027 -
Roman Zaschepkin KAMAZ Actif 76 / 112 40% 1 02.02.2027 -
Septian David Maluku Utara United Actif 89 / 92 37% 1 04.01.2027 -
Júnior Brandão Madura United Refusé 126 / 111 40% 3 30.12.2026 Refuser
Mevran Ablak Angusht Actif 87 / 66 40% 1 30.12.2026 -
Aleksej Golijanin Sokol Refusé 104 / 96 40% 2 29.12.2026 Plus d'infos
Nikita Simdyankin KDV Tomsk Actif 108 / 78 40% 1 27.12.2026 -
Magomed Nasibov Pobeda Actif 86 / 104 40% 1 26.12.2026 -
Patrick Luan Arda Actif 76 / 110 40% 1 26.12.2026 -
Dalberto Arema Actif 115 / 112 40% 4 25.12.2026 -
Daniil Kondrakov KDV Tomsk Actif 113 / 80 40% 1 25.12.2026 -
Milan Ristovski Bhayangkara Presisi Actif 124 / 117 40% 5 24.12.2026 -
Georgy Melkadze Akhmat Grozny Actif 137 / 104 40% 2 24.12.2026 -
Andrew Jung Persib Actif 124 / 108 40% 1 23.12.2026 -
Artem Maximenko Nizhniy Novgorod Actif 86 / 103 40% 1 22.12.2026 -
Amur Kalmykov Spartak Kostroma Actif 113 / 100 40% 2 18.12.2026 -
Anton Betyuzhnov Dinamo Vologda Actif 54 / 70 40% 1 18.12.2026 -
Alexey Skvortsov Metallurg Actif 77 / 100 40% 2 17.12.2026 -
Carlos Zepeda Strogino Actif 74 / 64 40% 1 16.12.2026 -
Anton Fase PSIM Actif 113 / 105 40% 4 15.12.2026 -
Ilja Azyavin Arsenal Tula Actif 83 / 95 40% 1 15.12.2026 -
Vladislav Sarveli Nizhniy Novgorod Actif 97 / 103 40% 1 14.12.2026 -
Kodai Tanaka PSM Actif 81 / 84 40% 3 13.12.2026 -
Hazeem Bakre Crawley Town Actif 74 / 78 40% 1 11.12.2026 -
Naoufel Zerhouni Persib Refusé 99 / 109 40% 5 09.12.2026 Refuser
Ruslan Apekov Torpedo Moscow Actif 97 / 95 40% 2 07.12.2026 -
Ekain Orobengoa Real Sociedad Actif 116 / 84 40% 1 03.12.2026 -
Edarlyn Reyes Arsenal Tula Actif 128 / 122 40% 1 01.12.2026 -
Diego Campos Bali United Actif 119 / 115 40% 3 30.11.2026 -
Tomás Orqueida Mattersburg Actif 98 / 117 40% 2 30.11.2026 -
Mikhail Gainov Dinamo Stavropol Actif 59 / 91 40% 1 29.11.2026 -
Amar Rahmanović Krylya Sovetov Actif 101 / 125 40% 1 22.11.2026 -
Lucas Morelatto Persijap Actif 113 / 92 40% 1 19.11.2026 -
Nermin Haljeta PSIM Actif 96 / 100 40% 2 14.11.2026 -
Alexandre Ramalingom Persita Actif 126 / 116 40% 3 13.11.2026 -
Luka Čumić PSM Actif 100 / 108 40% 3 11.11.2026 -
Cecilio Waterman Actif 100 / 102 40% 1 09.11.2026 -
Gustavo França Arema Actif 97 / 100 40% 4 04.11.2026 -
Gaspar Duarte Rosario Central Actif 113 / 122 40% 1 02.11.2026 -
Ayman Sellouf Persija Actif 106 / 90 40% 3 31.10.2026 -
Mihailo Perović Persebaya Actif 105 / 110 40% 2 30.10.2026 -
Alexis Gómez Persijap Actif 103 / 108 40% 2 21.10.2026 -
Oswaldo Valencia Arema Actif 100 / 88 40% 1 21.10.2026 -
Adrián Dalmau PSIM Actif 102 / 115 40% 3 20.10.2026 -
Sergio Castel Persik Actif 99 / 120 40% 2 19.10.2026 -
Moussa Sidibé Bhayangkara Presisi Actif 93 / 102 40% 3 19.10.2026 -
Bruno Hernández Cerro Largo Actif 110 / 84 40% 1 17.10.2026 -
Abu Kamara Persis Actif 109 / 93 40% 1 14.10.2026 -
Jurica Poldrugač Rudes Actif 98 / 112 40% 2 12.10.2026 -
Mohcine Hassan PSBS Biak Actif 82 / 88 40% 2 11.10.2026 -
Maximo Ingravidi Colón Actif 107 / 121 40% 2 08.10.2026 -
Gustavo Almeida Persija Actif 82 / 83 40% 1 04.10.2026 -
Pedro Lucas Olimpija Ljubljana Actif 130 / 84 40% 1 04.10.2026 -
Alexander Jeremejeff Persija Actif 104 / 128 40% 1 03.10.2026 -
Sutanto Tan Persis Actif 76 / 70 40% 1 30.09.2026 -
Jort van der Sande Bali United Actif 87 / 99 40% 1 29.09.2026 -
Marcos Camarda Santiago Wanderers Actif 111 / 96 40% 1 28.09.2026 -
Isaac Matondo Koper Actif 85 / 118 40% 1 26.09.2026 -
Francisco Galván Deportivo Municipal Actif 125 / 107 40% 2 25.09.2026 -
Bernard Henri Doumbia Bhayangkara Presisi Actif 87 / 79 40% 1 24.09.2026 -
Diego Valencia Universidad Catolica Actif 119 / 121 40% 1 22.09.2026 -
Rhys Oates Mansfield Town Actif 91 / 111 40% 1 15.09.2026 -
Diego Maurício Semen Padang Actif 96 / 106 40% 1 13.09.2026 -
Agustín Bianciotti Metropolitanos Actif 97 / 106 40% 1 13.09.2026 -
Koldo Obieta Borneo Actif 115 / 96 40% 1 12.09.2026 -
Guillermo Semen Padang Actif 73 / 92 40% 1 09.09.2026 -
Ahmad Noviandani Madura United Actif 84 / 95 40% 1 09.09.2026 -
Boris Kopitović Bali United Actif 109 / 79 40% 1 07.09.2026 -
Tobías Ganduglia Independiente Rivadavia Actif 109 / 85 40% 1 04.09.2026 -
Dedik Setiawan Arema Actif 86 / 98 40% 1 20.08.2026 -
Joaquín Zappacosta Morón Actif 93 / 93 40% 1 17.08.2026 -
Danilo Santacruz Madura United Actif 120 / 113 40% 1 12.08.2026 -
Riquelme Madura United Actif 94 / 102 40% 1 11.08.2026 -
Ciro Actif 87 / 98 37% 1 10.08.2026 -
Ignacio Cuello Atlético Tucumán Actif 70 / 94 40% 1 08.08.2026 -
Genaro Rossi San Martín SJ Actif 111 / 120 40% 1 06.08.2026 -
Nicolás Orsini Barracas Central Actif 125 / 132 40% 1 02.08.2026 -